Weather History for Sand Point, AK

Change the Weather History Date:

Sunday, December 15, 2013

  Actual Average Record
Temperature  
Mean Temperature 28 °F -  
Max Temperature 30 °F 33 °F 43 °F (1984)
Min Temperature 26 °F 26 °F 10 °F (1999)
Degree Days  
Heating Degree Days 37    
Moisture  
Dew Point 23 °F    
Average Humidity 81    
Maximum Humidity 93    
Minimum Humidity 69    
Precipitation  
Precipitation 0.00 in - - ()
Sea Level Pressure  
Sea Level Pressure 30.12 in    
Wind  
Wind Speed 20 mph (NNW)    
Max Wind Speed 26 mph    
Max Gust Speed 36 mph    
Visibility 9 miles    
Events      
Averages and records for this station are not official NWS values.
T = Trace of Precipitation, MM = Missing Value Source: NWS Daily Summary

Daily Weather History Graph

Daily Weather History Graph

Search for Another Location

Airport:

Trip Planner

Search our weather history database for the weather conditions in past years. The results will help you decide how hot, cold, wet, or windy it might be!

Date:

Astronomy

Dec. 15, 2013 Rise Set
Actual Time 10:03 AM AKST 5:11 PM AKST
Civil Twilight 9:17 AM AKST 5:57 PM AKST
Nautical Twilight 8:29 AM AKST 6:45 PM AKST
Astronomical Twilight 7:44 AM AKST 7:30 PM AKST
Moon 4:36 PM AKST (12/15) 8:17 AM AKST (12/15)
Length of Visible Light 8h 40m
Length of Day
7h 08m
Waxing Gibbous, 98% of the Moon is Illuminated
Dec 15
Waxing Gibbous
Dec 17
Full
Dec 25
Last Quarter
Jan 1
New
Jan 7
First Quarter

Hourly Weather History & Observations

Time (AKST) Temp. Windchill Dew Point Humidity Pressure Visibility Wind Dir Wind Speed Gust Speed Precip Events Conditions
12:16 AM 28.4 °F 13.8 °F 19.4 °F 69% 29.89 in 10.0 mi NW 25.3 mph 33.4 mph N/A   Mostly Cloudy
12:36 AM 28.4 °F 13.8 °F 21.2 °F 74% 29.91 in 9.0 mi NW 25.3 mph 35.7 mph N/A   Overcast
12:56 AM 28.4 °F 14.4 °F 23.0 °F 80% 29.93 in 4.0 mi NW 23.0 mph 33.4 mph N/A   Overcast
1:16 AM 26.6 °F 13.8 °F 23.0 °F 86% 29.93 in 10.0 mi NNW 17.3 mph - N/A   Overcast
1:36 AM 26.6 °F 11.7 °F 23.0 °F 86% 29.94 in 9.0 mi NW 24.2 mph - N/A   Mostly Cloudy
1:56 AM 28.4 °F 15.4 °F 23.0 °F 80% 29.95 in 10.0 mi NNW 19.6 mph 27.6 mph N/A   Overcast
2:16 AM 28.4 °F 16.2 °F 24.8 °F 86% 29.97 in 5.0 mi NW 17.3 mph 24.2 mph N/A   Mostly Cloudy
2:36 AM 26.6 °F 15.2 °F 24.8 °F 93% 29.98 in 3.0 mi NNW 13.8 mph - N/A   Overcast
2:56 AM 28.4 °F 15.8 °F 24.8 °F 86% 29.98 in 3.0 mi NNW 18.4 mph 32.2 mph N/A   Overcast
3:16 AM 28.4 °F 13.5 °F 23.0 °F 80% 29.99 in 5.0 mi NNW 26.5 mph 34.5 mph N/A   Overcast
3:36 AM 26.6 °F 15.7 °F 23.0 °F 86% 30.00 in 10.0 mi North 12.7 mph 19.6 mph N/A   Mostly Cloudy
3:56 AM 28.4 °F 16.2 °F 23.0 °F 80% 30.00 in 10.0 mi North 17.3 mph 23.0 mph N/A   Overcast
4:16 AM 28.4 °F 16.6 °F 23.0 °F 80% 30.01 in 10.0 mi NNW 16.1 mph - N/A   Mostly Cloudy
4:36 AM 28.4 °F 15.1 °F 24.8 °F 86% 30.02 in 7.0 mi NNW 20.7 mph 28.8 mph N/A   Mostly Cloudy
4:56 AM 28.4 °F 17.0 °F 24.8 °F 86% 30.02 in 8.0 mi NNW 15.0 mph - N/A   Mostly Cloudy
5:16 AM 28.4 °F 16.6 °F 24.8 °F 86% 30.03 in 10.0 mi NNW 16.1 mph - N/A   Overcast
5:36 AM 28.4 °F 15.4 °F 24.8 °F 86% 30.03 in 10.0 mi NNW 19.6 mph 24.2 mph N/A   Overcast
5:56 AM 28.4 °F 14.7 °F 21.2 °F 74% 30.04 in 10.0 mi NW 21.9 mph 27.6 mph N/A   Overcast
6:16 AM 28.4 °F 13.5 °F 23.0 °F 80% 30.05 in 9.0 mi NW 26.5 mph 33.4 mph N/A   Overcast
6:36 AM 26.6 °F 12.7 °F 24.8 °F 93% 30.05 in 5.0 mi NW 20.7 mph 25.3 mph N/A   Overcast
6:56 AM 26.6 °F 12.7 °F 24.8 °F 93% 30.06 in 4.0 mi NW 20.7 mph 25.3 mph N/A   Overcast
7:16 AM 26.6 °F 11.7 °F 24.8 °F 93% 30.07 in 3.0 mi NNW 24.2 mph 27.6 mph N/A   Overcast
7:36 AM 26.6 °F 13.4 °F 23.0 °F 86% 30.08 in 7.0 mi NW 18.4 mph - N/A   Overcast
7:56 AM 28.4 °F 17.5 °F 21.2 °F 74% 30.08 in 10.0 mi NW 13.8 mph - N/A   Overcast
8:16 AM 28.4 °F 16.2 °F 21.2 °F 74% 30.08 in 10.0 mi NW 17.3 mph 21.9 mph N/A   Overcast
8:36 AM 28.4 °F 14.7 °F 24.8 °F 86% 30.09 in 6.0 mi NW 21.9 mph 26.5 mph N/A   Mostly Cloudy
8:56 AM 28.4 °F 14.4 °F 24.8 °F 86% 30.09 in 8.0 mi NNW 23.0 mph - N/A   Overcast
9:16 AM 28.4 °F 14.4 °F 24.8 °F 86% 30.10 in 10.0 mi NNW 23.0 mph - N/A   Mostly Cloudy
9:36 AM 28.4 °F 14.7 °F 24.8 °F 86% 30.11 in 10.0 mi NNW 21.9 mph - N/A   Mostly Cloudy
9:56 AM 28.4 °F 15.1 °F 24.8 °F 86% 30.12 in 10.0 mi NNW 20.7 mph - N/A   Overcast
10:16 AM 28.4 °F 15.1 °F 24.8 °F 86% 30.13 in 3.0 mi NNW 20.7 mph 24.2 mph N/A   Overcast
10:36 AM 28.4 °F 17.0 °F 24.8 °F 86% 30.14 in 10.0 mi NNW 15.0 mph - N/A   Overcast
10:56 AM 26.6 °F 16.8 °F 24.8 °F 93% 30.15 in 10.0 mi NNW 10.4 mph - N/A   Mostly Cloudy
11:16 AM 28.4 °F 16.2 °F 24.8 °F 86% 30.15 in 10.0 mi NNW 17.3 mph - N/A   Mostly Cloudy
11:36 AM 28.4 °F 17.0 °F 23.0 °F 80% 30.17 in 10.0 mi NNW 15.0 mph 21.9 mph N/A   Mostly Cloudy
11:56 AM 28.4 °F 17.0 °F 23.0 °F 80% 30.16 in 10.0 mi NW 15.0 mph - N/A   Mostly Cloudy
12:16 PM 28.4 °F 14.7 °F 24.8 °F 86% 30.17 in 9.0 mi NNW 21.9 mph 29.9 mph N/A   Mostly Cloudy
12:36 PM 30.2 °F 17.4 °F 23.0 °F 75% 30.16 in 10.0 mi North 20.7 mph - N/A   Mostly Cloudy
12:56 PM 30.2 °F 17.4 °F 21.2 °F 69% 30.17 in 10.0 mi NNW 20.7 mph - N/A   Mostly Cloudy
1:16 PM 30.2 °F 17.4 °F 21.2 °F 69% 30.17 in 8.0 mi NNW 20.7 mph 28.8 mph N/A   Mostly Cloudy
1:36 PM 30.2 °F 17.1 °F 21.2 °F 69% 30.18 in 10.0 mi NNW 21.9 mph 26.5 mph N/A   Mostly Cloudy
1:56 PM 30.2 °F 18.1 °F 21.2 °F 69% 30.18 in 10.0 mi NNW 18.4 mph - N/A   Mostly Cloudy
2:16 PM 30.2 °F 18.1 °F 23.0 °F 75% 30.18 in 10.0 mi NNW 18.4 mph - N/A   Mostly Cloudy
2:36 PM 28.4 °F 14.1 °F 24.8 °F 86% 30.18 in 10.0 mi NNW 24.2 mph - N/A   Mostly Cloudy
2:56 PM 28.4 °F 15.4 °F 24.8 °F 86% 30.18 in 10.0 mi North 19.6 mph - N/A   Mostly Cloudy
3:16 PM 28.4 °F 17.0 °F 24.8 °F 86% 30.18 in 10.0 mi North 15.0 mph - N/A   Mostly Cloudy
3:36 PM 28.4 °F 17.5 °F 23.0 °F 80% 30.19 in 10.0 mi NNW 13.8 mph - N/A   Mostly Cloudy
3:56 PM 28.4 °F 17.5 °F 21.2 °F 74% 30.18 in 10.0 mi NNW 13.8 mph - N/A   Mostly Cloudy
4:16 PM 30.2 °F 19.3 °F 21.2 °F 69% 30.18 in 10.0 mi NNW 15.0 mph 19.6 mph N/A   Mostly Cloudy
4:36 PM 30.2 °F 19.3 °F 21.2 °F 69% 30.18 in 10.0 mi NNW 15.0 mph - N/A   Mostly Cloudy
4:56 PM 30.2 °F 17.8 °F 21.2 °F 69% 30.19 in 10.0 mi North 19.6 mph - N/A   Mostly Cloudy
5:16 PM 28.4 °F 15.4 °F 21.2 °F 74% 30.19 in 10.0 mi NNW 19.6 mph - N/A   Mostly Cloudy
5:36 PM 28.4 °F 16.6 °F 21.2 °F 74% 30.19 in 10.0 mi North 16.1 mph - N/A   Mostly Cloudy
5:56 PM 28.4 °F 19.1 °F 21.2 °F 74% 30.20 in 10.0 mi NNW 10.4 mph - N/A   Mostly Cloudy
6:16 PM 28.4 °F 19.1 °F 21.2 °F 74% 30.19 in 10.0 mi NNW 10.4 mph - N/A   Mostly Cloudy
6:36 PM 28.4 °F 17.0 °F 23.0 °F 80% 30.19 in 10.0 mi North 15.0 mph - N/A   Mostly Cloudy
6:56 PM 28.4 °F 17.5 °F 24.8 °F 86% 30.19 in 10.0 mi NNW 13.8 mph - N/A   Mostly Cloudy
7:16 PM 28.4 °F 16.6 °F 24.8 °F 86% 30.19 in 10.0 mi NNW 16.1 mph - N/A   Mostly Cloudy
7:36 PM 28.4 °F 18.0 °F 23.0 °F 80% 30.19 in 10.0 mi NNW 12.7 mph - N/A   Mostly Cloudy
7:56 PM 28.4 °F 18.5 °F 23.0 °F 80% 30.19 in 10.0 mi NNW 11.5 mph - N/A   Mostly Cloudy
8:16 PM 28.4 °F 15.1 °F 23.0 °F 80% 30.20 in 10.0 mi NNW 20.7 mph - N/A   Mostly Cloudy
8:36 PM 28.4 °F 15.8 °F 21.2 °F 74% 30.20 in 10.0 mi NW 18.4 mph - N/A   Scattered Clouds
8:56 PM 28.4 °F 15.1 °F 21.2 °F 74% 30.19 in 10.0 mi NNW 20.7 mph - N/A   Mostly Cloudy
9:16 PM 28.4 °F 17.0 °F 21.2 °F 74% 30.20 in 10.0 mi NW 15.0 mph - N/A   Scattered Clouds
9:36 PM 28.4 °F 16.2 °F 21.2 °F 74% 30.20 in 10.0 mi NW 17.3 mph - N/A   Mostly Cloudy
9:56 PM 28.4 °F 15.1 °F 26.6 °F 93% 30.20 in 3.0 mi North 20.7 mph 27.6 mph N/A   Mostly Cloudy
10:16 PM 28.4 °F 17.5 °F 26.6 °F 93% 30.20 in 10.0 mi North 13.8 mph - N/A   Scattered Clouds
10:36 PM 28.4 °F 18.0 °F 24.8 °F 86% 30.20 in 10.0 mi North 12.7 mph - N/A   Scattered Clouds
10:56 PM 28.4 °F 15.4 °F 24.8 °F 86% 30.21 in 5.0 mi NNW 19.6 mph 24.2 mph N/A   Mostly Cloudy
11:16 PM 28.4 °F 15.4 °F 23.0 °F 80% 30.21 in 10.0 mi North 19.6 mph 27.6 mph N/A   Mostly Cloudy
11:36 PM 28.4 °F 15.4 °F 21.2 °F 74% 30.21 in 10.0 mi NNW 19.6 mph - N/A   Overcast
11:56 PM 28.4 °F 14.7 °F 21.2 °F 74% 30.22 in 10.0 mi NNW 21.9 mph - N/A   Overcast